Flag for Mexico Weather past 2 weeks in Aguascalientes, Aguascalientes, Mexico

Now
52 °F

Overcast.


Feels Like: 46 °F
Forecast: 50 / 64 °F
Wind: 17 mph from Northwest

Location: Zacatecas Airport

Current Time: Feb 1, 2015 at 6:38:14 PM

Latest Report: Feb 1, 2015 at 4:50 PM


Visibility: 8 mi

Pressure: 30.14 "Hg

Humidity: 67%

Dew point: 41 °F

Location of AguascalientesLocation

Historic Weather in Aguascalientes — Graph

°F

Aguascalientes temperature yesterday

Maximum temperature yesterday: 68 °F (at 1:57 PM)
Minimum temperature yesterday: 43 °F (at 3:56 AM)
Average temperature yesterday: 53 °F

Past Weeks' High & Low Weather Summary

 TemperatureHumidityPressure
High75 °F (Jan 28, 3:05 PM)82% (Feb 1, 2:43 AM)30.44 "Hg (Feb 1, 2:43 AM)
Low34 °F (Jan 25, 5:46 AM)12% (Jan 23, 3:50 PM)30.09 "Hg (Jan 21, 3:46 PM)
Average56 °F47%30.26 "Hg
* Reported Jan 17 5:53 PM — Feb 1 4:50 PM, Aguascalientes, Weather by CustomWeather, © 2014

Note: Actual official high and low records may vary slightly from our data, if they occured in-between our weather recording intervals... More about our weather records

Advertising

Aguascalientes weather history for previous 24 hours

 ConditionsComfort  
Time TempWeatherWind HumidityBarometerVisibility
4:50 PM
Feb 1
52 °FOvercast.17 mph67%30.14 "Hg8 mi
3:53 PM54 °FPartly sunny.12 mph67%30.12 "Hg10 mi
2:38 PM52 °FRain. Overcast.23 mph67%30.14 "Hg5 mi
1:45 PM55 °FOvercast.23 mph63%30.14 "Hg10 mi
12:42 PM55 °FPartly sunny.23 mph59%30.17 "Hg10 mi
11:01 AM50 °FOvercast.23 mph67%30.20 "Hg10 mi
8:49 AM46 °FOvercast.12 mph76%30.18 "Hg10 mi
5:45 AM46 °FOvercast.12 mph76%30.13 "Hg10 mi
3:45 AM46 °FLight rain. Overcast.7 mph76%30.14 "Hg10 mi
2:43 AM46 °FPassing clouds.6 mph82%30.14 "Hg10 mi
1:48 AM46 °FPassing clouds.12 mph76%30.15 "Hg10 mi
11:47 PM
Jan 31
46 °FPassing clouds.12 mph71%30.18 "Hg10 mi
10:50 PM46 °FClear.12 mph71%30.17 "Hg10 mi
9:47 PM48 °FPassing clouds.12 mph66%30.18 "Hg10 mi
8:50 PM52 °FClear.12 mph62%30.17 "Hg10 mi
6:51 PM48 °FPassing clouds.12 mph62%30.12 "Hg10 mi
Weather by CustomWeather, © 2014

See weather overviewHow to use our weather pages